Regional Weather Roundup
Issued by NWS Sioux Falls, SD

Home | Current Version | Previous Version | Graphics & Text | Print | Product List | Glossary Off
Versions: 1 2 3 4 5 6 7 8 9 10 11 12 13 14 15 16 17 18 19 20 21 22 23 24 25 26 27 28 29 30 31 32 33 34 35 36 37 38 39 40 41 42 43 44 45 46 47 48 49 50

000
ASUS43 KFSD 301802
RWRFSD

WEATHER ROUNDUP FOR SE SOUTH DAKOTA/SW MINNESOTA/NW IOWA
NATIONAL WEATHER SERVICE SIOUX FALLS SD
100 PM CDT SUN AUG 30 2015

NOTE: "FAIR" INDICATES FEW OR NO CLOUDS BELOW 12,000 FEET WITH NO
SIGNIFICANT WEATHER AND OR OBSTRUCTIONS TO VISIBILITY.


SDZ038>040-050-052>070-301900-
SOUTHEAST SOUTH DAKOTA

CITY           SKY/WX    TMP DP  RH WIND       PRES   REMARKS
BROOKINGS      SUNNY     73  64  73 S14G20    29.95F
CHAMBERLAIN    SUNNY     84  62  48 S14       29.85F
6HR MIN TEMP:  65; 6HR MAX TEMP:  84;

HURON          SUNNY     79  66  64 S12G22    29.86F
6HR MIN TEMP:  63; 6HR MAX TEMP:  79;

MADISON        FAIR      72  68  88 S15       29.95F
MITCHELL       SUNNY     80  67  64 S14G22    29.89F
6HR MIN TEMP:  62; 6HR MAX TEMP:  80;

SIOUX FALLS    MOSUNNY   72  64  76 S13       29.97F
6HR MIN TEMP:  62; 6HR MAX TEMP:  72;

WINNER         FAIR      91  52  26 S20G30    29.86F
YANKTON        SUNNY     77  68  73 SE13      29.94F
$$

MNZ071-072-080-081-089-090-097-098-301900-
SOUTHWEST MINNESOTA

CITY           SKY/WX    TMP DP  RH WIND       PRES   REMARKS
FAIRMONT       SUNNY     72  61  68 S14       30.00F
JACKSON        SUNNY     73  64  73 S15       30.02S
LUVERNE        SUNNY     72  63  73 S10       29.99F
MARSHALL       SUNNY     77  63  61 S15       29.95F
6HR MIN TEMP:  61; 6HR MAX TEMP:  77;

MONTEVIDEO     SUNNY     79  66  65 S12       29.93F
PIPESTONE      SUNNY     72  63  73 S12       29.97F
REDWOOD FALLS  SUNNY     77  65  66 S15       29.95F
TRACY          SUNNY     75  66  72 S10       29.96F
WINDOM         SUNNY     75  63  64 S8        29.99F
WORTHINGTON    SUNNY     72  63  73 S14       30.00F
$$

IAZ001>003-012>014-020>022-031-032-NEZ013-014-SDZ071-301900-
NORTHWEST IOWA

CITY           SKY/WX    TMP DP  RH WIND       PRES   REMARKS
DENISON        CLOUDY    68  64  88 S10       30.04F
ESTHERVILLE    SUNNY     73  65  75 S12       30.02F
SIOUX CITY     NOT AVBL
SPENCER        SUNNY     73  63  70 S13       30.02F
6HR MIN TEMP:  62; 6HR MAX TEMP:  73;

$$

ABBREVIATIONS USED IN REMARKS
   TC - TEMPERATURE IN CELSIUS
  WCI - WIND CHILL INDEX
   HX - HEAT INDEX
  VSB - VISIBILITY




USA.gov is the U.S. government's official web portal to all federal, state and local government web resources and services.